| time (UTC) | temp C | wind direction | speed KPH | gust KPH | rain 1hr cm | rain 24hr cm | rain mn cm | humidity % | barometer mb |
| 20260504050215 | 6 | 276 | 0.0 | 0.0 | 0.00 | 0.00 | 0.00 | 66 | 1017.2 |
| 20260504043224 | 6 | 275 | 0.0 | 0.0 | 0.00 | 0.00 | 0.00 | 65 | 1017.4 |
| 20260504040243 | 5 | 275 | 0.0 | 0.0 | 0.00 | 0.00 | 0.00 | 72 | 1017.4 |
| 20260504033218 | 6 | 275 | 0.0 | 0.0 | 0.00 | 0.00 | 0.00 | 68 | 1017.1 |
| 20260504030213 | 7 | 275 | 0.0 | 0.0 | 0.00 | 0.00 | 0.00 | 60 | 1017.1 |
| 20260504023234 | 7 | 275 | 0.0 | 0.0 | 0.00 | 0.00 | 0.00 | 61 | 1017.1 |
| 20260504020226 | 8 | 276 | 0.0 | 0.0 | 0.00 | 0.00 | 0.00 | 56 | 1016.7 |
| 20260504013214 | 9 | 276 | 0.0 | 0.0 | 0.00 | 0.00 | 0.00 | 50 | 1016.5 |
| 20260504010223 | 11 | 276 | 0.0 | 0.0 | 0.00 | 0.00 | 0.00 | 44 | 1016.3 |
| 20260504003222 | 12 | 276 | 0.0 | 0.0 | 0.00 | 0.00 | 0.00 | 40 | 1016.1 |
| 20260504000226 | 14 | 276 | 0.0 | 1.6 | 0.00 | 0.00 | 0.00 | 33 | 1016.1 |
| 20260503233225 | 15 | 276 | 4.8 | 11.3 | 0.00 | 0.00 | 0.00 | 29 | 1016.0 |
| 20260503230243 | 16 | 277 | 3.2 | 11.3 | 0.00 | 0.00 | 0.00 | 28 | 1015.7 |
| 20260503223214 | 16 | 273 | 8.0 | 17.7 | 0.00 | 0.00 | 0.00 | 27 | 1015.6 |
| 20260503220228 | 16 | 274 | 1.6 | 16.1 | 0.00 | 0.00 | 0.00 | 28 | 1015.8 |
| 20260503213226 | 16 | 275 | 9.7 | 19.3 | 0.00 | 0.00 | 0.00 | 27 | 1016.0 |
| 20260503210220 | 16 | 257 | 8.0 | 20.9 | 0.00 | 0.00 | 0.00 | 28 | 1015.9 |
| 20260503203231 | 16 | 281 | 11.3 | 22.5 | 0.00 | 0.00 | 0.00 | 28 | 1016.0 |
| 20260503200230 | 16 | 257 | 9.7 | 24.1 | 0.00 | 0.00 | 0.00 | 30 | 1016.4 |
| 20260503193249 | 16 | 274 | 6.4 | 20.9 | 0.00 | 0.00 | 0.00 | 29 | 1016.9 |
| 20260503190228 | 15 | 315 | 9.7 | 24.1 | 0.00 | 0.00 | 0.00 | 30 | 1017.3 |
| 20260503183225 | 15 | 265 | 9.7 | 20.9 | 0.00 | 0.00 | 0.00 | 30 | 1017.6 |
| 20260503180217 | 14 | 263 | 3.2 | 24.1 | 0.00 | 0.00 | 0.00 | 34 | 1017.8 |
| 20260503173234 | 13 | 302 | 4.8 | 20.9 | 0.00 | 0.00 | 0.00 | 35 | 1018.1 |
| 20260503170226 | 12 | 272 | 9.7 | 24.1 | 0.00 | 0.00 | 0.00 | 35 | 1018.4 |
| 20260503150228 | 11 | 355 | 6.4 | 24.1 | 0.00 | 0.00 | 0.00 | 39 | 1019.4 |
| 20260503140214 | 9 | 286 | 3.2 | 22.5 | 0.00 | 0.00 | 0.00 | 48 | 1019.3 |
| 20260503130225 | 7 | 297 | 6.4 | 20.9 | 0.00 | 0.00 | 0.00 | 53 | 1019.5 |
| 20260503110241 | 4 | 332 | 1.6 | 4.8 | 0.00 | 0.00 | 0.00 | 68 | 1018.6 |
| 20260503100256 | 3 | 315 | 0.0 | 1.6 | 0.00 | 0.00 | 0.00 | 71 | 1017.9 |
| 20260503090219 | 5 | 315 | 0.0 | 8.0 | 0.00 | 0.00 | 0.00 | 65 | 1017.5 |
| 20260503080222 | 5 | 318 | 4.8 | 9.7 | 0.00 | 0.00 | 0.00 | 64 | 1017.2 |
| 20260503070232 | 5 | 319 | 1.6 | 9.7 | 0.00 | 0.00 | 0.00 | 63 | 1016.7 |
| 20260503060222 | 6 | 321 | 1.6 | 8.0 | 0.00 | 0.00 | 0.00 | 61 | 1016.5 |
| 20260503053222 | 6 | 321 | 1.6 | 9.7 | 0.00 | 0.00 | 0.00 | 59 | 1016.6 |